GFSNW_con_3kmhel_186.txt.gz
Helicity
85 76 74 60 61 59 72 68 179 123 121 281 304 292 297 276 284 286 278 216 152 89 0 24 -15 -3 -48 -19 -60 72 9 144 191 211 245 175 185 197 167 185 242 326 292 168
86 75 55 63 55 54 50 108 111 119 132 221 237 248 236 225 240 254 254 241 223 186 97 55 8 27 69 64 -27 -25 61 2 151 217 29 118 195 218 165 147 113 121 210 147
54 44 40 46 48 46 74 124 186 175 186 176 176 168 164 185 143 140 144 153 149 151 159 80 64 95 80 107 59 83 47 18 42 122 83 94 128 43 -13 -2 124 124 138 125
41 36 32 47 47 52 84 132 139 121 178 129 184 178 182 135 121 209 203 182 131 159 192 208 148 106 103 110 82 108 116 26 46 69 83 83 68 35 33 61 59 23 8 -11
52 45 34 46 49 78 81 105 115 91 117 146 113 77 148 179 154 142 155 131 157 160 148 130 153 126 95 50 90 77 77 54 57 62 35 13 23 34 55 54 47 71 76 45
49 40 35 35 42 72 53 47 49 68 85 104 120 113 115 91 91 50 85 117 88 92 106 95 71 72 69 63 59 38 48 40 29 28 34 -34 -14 44 7 40 42 45 41 44
32 26 26 35 43 67 58 46 72 93 67 63 69 94 94 96 104 89 98 73 77 85 62 39 46 59 68 80 97 103 103 111 87 55 -3 -57 -39 -65 -58 -37 -4 30 74 103
7 13 15 39 44 65 77 69 88 95 73 59 59 59 61 69 73 66 49 56 55 96 82 78 84 83 69 55 60 90 130 152 127 70 21 -3 23 -10 50 31 26 24 73 47
14 13 21 34 38 53 91 64 81 99 83 55 48 64 63 73 77 82 69 80 81 91 92 108 108 93 78 76 47 46 103 87 121 145 81 70 85 51 74 2 14 4 46 43
24 23 27 42 56 70 108 68 116 138 109 94 123 112 70 66 83 78 75 55 97 101 139 131 121 110 149 114 83 111 119 115 121 111 147 100 93 68 78 24 102 70 48 99
50 46 49 45 56 68 152 97 122 167 144 94 113 93 109 121 112 104 59 88 95 136 152 144 123 123 120 118 93 103 133 135 178 162 157 128 110 97 155 148 91 95 67 39
55 48 44 41 39 49 107 103 131 144 191 143 92 81 78 129 97 128 108 113 114 107 119 118 101 124 159 167 164 171 210 215 156 118 153 174 155 106 70 45 70 41 -9 -25
33 19 14 10 7 15 88 157 177 243 246 148 111 66 121 115 101 153 151 139 168 155 149 112 117 150 217 216 187 161 123 81 127 80 100 98 97 72 22 22 43 25 0 32
34 28 21 13 14 23 106 142 94 89 109 104 104 69 72 64 103 131 157 116 160 141 159 150 170 223 199 216 221 174 156 121 105 59 37 56 8 48 47 4 13 28 4 49
37 21 18 29 45 66 111 107 91 102 106 121 39 3 26 94 107 71 102 113 119 128 153 179 175 224 240 271 132 218 247 204 171 191 157 97 59 51 65 41 39 40 -19 8
10 8 34 55 69 128 116 60 56 106 109 96 35 18 65 -7 11 69 59 116 118 187 136 156 135 298 205 237 202 409 135 240 278 220 183 69 40 4 75 -39 7 38 33 67
14 45 43 55 79 79 59 39 24 48 90 60 18 31 18 -1 6 47 40 124 163 159 146 76 68 63 163 184 133 334 156 114 135 146 82 42 121 93 89 81 -3 -28 20 46
30 39 56 52 60 50 10 12 58 72 53 41 9 27 28 8 0 1 51 65 80 108 66 181 42 70 168 81 217 168 114 117 45 63 82 39 9 27 68 134 65 42 86 100
54 98 101 61 29 24 20 30 69 146 105 -68 -45 24 -9 7 15 2 26 70 47 128 121 188 127 125 149 337 126 63 83 101 62 67 53 59 45 -46 44 79 51 31 89 91
102 65 32 16 14 20 20 -52 -53 -39 -12 33 81 82 113 2 -23 -44 -107 -62 -4 2 72 114 83 137 191 121 88 54 40 29 6 -87 -52 26 41 83 79 40 16 -8 29 63
28 19 14 -10 -4 -36 -36 -19 16 11 49 53 47 70 86 35 16 -10 -23 -73 -45 17 45 103 101 200 132 104 46 97 61 42 45 64 -14 24 41 55 -15 -30 -40 23 86 89
7 -1 -15 -22 -25 -15 -5 33 39 49 55 75 64 87 174 124 182 142 55 72 55 203 159 158 230 114 -10 61 47 -16 -113 -73 -24 -49 -47 -26 18 28 13 10 27 84 148 178
35 -2 -10 0 4 45 67 80 79 45 65 112 148 187 151 123 72 26 25 73 145 90 149 231 96 16 31 35 -40 4 -29 14 24 23 47 35 -2 6 -9 19 153 143 164 177
0 -2 21 11 43 33 46 46 29 59 159 195 229 231 142 88 56 -8 79 68 59 79 88 113 -49 -51 -16 -25 -15 -26 33 40 29 38 48 5 46 61 138 112 111 150 127 60
3 2 27 30 9 -15 -14 -6 43 75 54 99 121 183 47 13 13 29 25 41 49 15 69 -3 -22 12 18 -3 -9 -19 -2 30 15 5 1 47 85 106 119 89 112 66 53 54
-5 9 18 0 5 -3 -23 -14 33 -8 17 22 29 71 60 32 0 26 21 -24 7 -23 -82 -64 -54 -44 -22 -2 -31 -17 -19 18 22 38 30 15 49 106 133 192 86 68 68 48
11 15 -4 14 21 81 78 27 57 -16 -18 -14 -24 -11 -5 2 -4 -57 18 54 -79 -100 -119 -150 -97 -77 -56 -32 -22 -16 -32 32 37 33 71 76 41 60 72 74 62 77 81 90

GFSNW_con_3kmhel_192.txt.gz
Helicity
106 93 80 67 53 39 34 78 174 125 94 206 243 205 217 234 172 182 138 147 127 131 145 118 128 136 114 82 69 66 5 -54 43 100 120 137 49 86 130 290 410 330 413 387
110 99 83 74 65 44 29 87 118 100 106 199 177 172 155 174 154 147 163 151 140 157 116 128 84 104 154 115 60 93 91 57 11 2 24 33 76 44 92 114 66 46 117 338
93 87 86 83 78 53 32 62 126 124 110 151 155 139 129 126 97 109 102 121 125 116 112 106 164 125 115 132 137 156 109 43 48 81 142 187 109 38 27 8 41 109 123 55
90 93 80 68 59 45 33 85 124 125 125 137 162 157 154 120 113 93 100 113 71 88 129 103 100 91 95 104 93 101 77 63 67 74 89 108 129 84 61 66 10 9 29 -1
73 70 63 56 58 38 61 86 91 97 118 124 116 101 130 162 161 160 147 154 193 158 105 106 151 197 164 114 109 63 101 138 145 127 94 76 83 94 88 79 40 31 22 -19
48 56 59 57 50 36 60 57 60 75 81 83 86 96 109 117 129 119 117 137 132 126 103 72 78 98 102 106 103 87 92 98 96 92 67 70 114 37 38 27 29 38 66 30
59 60 60 60 43 41 44 43 43 52 71 50 54 55 65 64 83 101 103 90 83 98 60 53 38 19 25 34 40 44 55 56 69 81 66 121 58 21 -1 11 37 37 37 21
63 59 51 44 40 42 42 42 46 48 53 37 36 30 38 49 48 37 36 34 43 66 57 83 15 2 34 39 47 43 75 79 116 118 98 74 69 36 18 1 57 88 32 26
56 41 33 24 31 46 38 36 43 43 48 53 42 60 62 61 61 53 50 56 71 75 86 87 78 89 65 88 90 68 69 69 83 89 87 88 54 24 28 67 57 -11 -6 18
33 23 18 18 34 43 28 41 39 42 43 20 34 61 74 66 72 81 77 71 64 46 67 72 71 71 54 82 61 76 85 98 84 99 103 86 50 35 45 86 64 33 89 64
19 18 20 31 40 61 51 53 54 61 65 27 51 32 24 28 39 59 90 55 51 61 86 89 72 91 76 83 61 53 86 95 110 93 89 85 70 59 53 54 37 121 90 42
29 33 36 33 37 65 60 54 86 75 99 49 64 30 10 15 5 43 79 67 76 82 88 93 108 81 89 62 73 38 79 86 84 91 101 62 64 49 39 64 81 39 34 32
51 50 46 45 40 41 74 51 106 111 98 90 73 11 6 40 19 38 123 80 36 67 64 96 104 110 81 92 87 41 46 38 84 52 72 48 17 14 17 23 26 29 42 38
42 43 43 22 11 29 53 60 79 95 78 105 60 53 45 35 28 50 57 26 86 83 94 122 123 100 95 69 39 18 20 18 4 10 45 71 69 35 -0 12 38 36 53 63
44 44 34 24 27 39 54 75 75 126 84 83 58 34 -8 -11 30 56 74 81 72 111 142 124 95 52 28 45 -9 198 82 73 26 45 104 34 83 80 76 69 54 37 41 50
33 33 23 22 29 83 64 43 56 57 67 64 52 43 18 26 8 10 23 21 10 51 83 51 18 73 38 39 161 220 91 37 36 85 56 33 46 75 101 53 58 39 18 2
24 1 5 34 66 32 44 68 79 41 51 45 33 19 15 1 11 45 34 27 67 82 62 104 82 42 57 93 243 248 49 29 6 -9 -13 -25 -27 -36 -20 -31 -29 -27 -37 -25
1 27 38 63 51 52 44 58 52 40 57 54 50 10 -18 -43 -45 -42 26 -7 36 58 73 80 87 23 58 133 231 48 2 -23 -27 -25 -31 -50 -59 -24 -25 -25 -28 -38 -50 -8
39 61 61 40 30 26 39 19 9 5 3 28 70 43 -14 -36 -53 -57 -47 -7 19 -17 57 63 13 45 73 120 -15 -23 -5 13 12 33 35 -14 -52 -47 3 13 -1 -22 -12 24
59 26 23 19 23 2 -37 -35 7 18 37 57 60 40 16 -32 -40 -55 -62 -42 4 13 14 -22 105 120 152 161 137 37 -0 21 48 -35 14 18 16 -50 -15 -19 -7 -39 48 56
16 24 20 22 -4 -33 -27 24 25 28 43 44 62 53 13 -1 -11 -28 -80 -51 -15 115 122 152 234 186 97 47 41 79 70 9 -4 -11 49 85 84 28 -4 -3 5 63 75 47
34 34 1 -15 -25 -13 21 19 9 17 28 83 108 80 123 127 195 44 8 29 12 142 138 109 107 88 -10 30 46 71 38 -18 -19 -6 88 55 54 43 50 60 11 -17 -1 12
28 -4 -5 -4 -6 21 25 7 8 33 69 88 93 138 109 90 50 6 -6 79 131 80 93 88 41 -67 -60 -50 -29 -27 -34 -0 -10 48 60 46 42 26 56 48 28 9 -4 13
7 4 16 12 -2 12 18 23 18 30 106 80 87 138 86 52 65 19 34 48 50 14 1 -44 -65 -96 -86 -56 -33 -54 -9 17 14 60 74 57 54 34 28 -14 -12 32 45 80
15 15 28 1 2 -1 6 8 40 35 26 27 59 78 72 74 85 85 33 44 42 12 -57 -123 -121 -87 -57 -28 -23 -20 -2 7 34 48 48 34 38 22 27 22 14 48 125 136
15 15 2 3 8 13 -18 -8 1 -35 -29 -25 -64 -43 -31 -3 -11 15 39 -1 112 -63 -136 -149 -104 -68 -65 -43 -14 2 13 6 13 32 31 25 7 2 12 21 23 58 75 51
20 19 6 -2 15 29 5 -27 -27 9 -19 -40 -38 -57 -28 -13 -55 -7 47 11 -54 -97 -49 -8 -68 -92 -69 -41 -11 13 22 5 -6 20 32 30 23 -0 28 44 43 67 43 47

GFSNW_con_3kmhel_195.txt.gz
Helicity
77 65 58 47 39 38 44 112 254 120 104 235 264 287 198 253 222 166 112 119 163 177 148 110 77 80 59 143 118 144 107 205 188 155 116 48 117 118 59 120 180 170 227 325
73 67 63 47 34 23 54 159 154 91 134 311 292 193 239 188 166 146 152 129 131 139 135 140 74 69 57 102 175 145 96 152 171 133 97 143 58 43 56 77 49 28 117 83
80 67 66 57 49 40 56 101 195 144 161 208 204 159 168 139 113 158 139 139 132 133 105 81 107 99 75 99 100 184 181 167 139 128 154 165 166 98 37 45 112 123 125 129
100 90 75 60 48 31 48 109 136 143 144 128 118 155 164 117 101 55 89 108 60 78 105 106 96 49 43 78 54 63 75 98 86 66 56 31 61 117 157 173 93 90 -3 57
104 87 69 53 34 14 44 75 80 93 116 143 84 113 112 127 133 134 134 116 162 172 126 91 67 133 176 139 112 138 58 35 53 104 84 91 131 71 67 63 80 88 84 67
91 72 49 40 15 5 61 52 71 95 113 78 94 88 86 110 149 106 133 117 118 86 95 118 124 122 95 96 99 83 67 112 126 91 85 73 131 83 26 48 65 44 45 41
69 50 48 40 25 36 44 52 54 83 87 73 89 109 79 71 77 115 107 62 80 83 82 77 37 60 97 66 74 46 60 60 83 107 90 146 82 35 40 44 44 45 48 46
50 52 51 43 31 14 38 30 48 54 89 88 75 63 64 55 44 32 41 44 54 77 78 73 81 60 30 16 22 37 50 71 107 122 99 87 67 51 50 38 44 71 92 53
52 43 35 32 23 3 9 37 35 57 88 86 89 65 63 51 33 44 37 55 79 66 59 66 52 70 36 68 65 37 56 81 105 119 123 101 75 28 35 61 80 20 21 18
50 40 26 17 17 -5 -0 35 5 39 58 37 52 60 77 66 63 56 51 69 59 36 61 72 61 60 23 51 45 57 69 87 77 67 75 78 51 35 47 83 86 38 33 43
42 31 23 17 19 4 -13 48 27 22 38 23 24 19 22 46 44 38 81 66 50 42 47 55 46 59 38 44 37 33 63 82 87 70 64 51 25 17 38 53 58 81 51 53
27 24 22 22 29 23 -0 53 41 54 63 31 49 11 -15 -17 -13 30 39 55 50 74 65 71 88 65 54 48 76 30 71 69 73 66 61 43 40 49 39 38 47 59 61 35
39 40 39 36 31 36 30 32 79 77 61 20 16 10 19 14 5 18 73 69 32 45 51 92 90 66 66 80 81 50 48 39 61 66 46 34 25 22 33 33 40 42 57 73
52 51 50 46 40 25 23 28 53 62 72 58 21 58 4 48 51 62 65 31 28 55 63 73 81 65 62 58 40 16 13 17 16 -12 -15 -30 -36 -17 2 -3 -2 31 67 69
47 50 54 42 33 29 20 34 59 80 76 75 36 31 13 11 27 25 31 46 36 52 81 118 85 42 9 -0 -10 98 47 43 32 42 43 -4 13 16 31 1 1 1 19 -12
49 42 34 29 34 30 30 35 63 94 88 77 61 50 23 27 31 24 21 39 33 7 14 10 30 47 -25 27 146 178 46 24 15 26 2 -47 -64 -52 -31 -7 -18 -25 -19 -24
29 23 18 20 25 18 31 52 75 63 40 60 53 39 35 13 15 22 -5 -12 -10 8 2 73 66 20 -13 74 229 67 13 -27 -25 -18 -11 -25 -23 -65 -4 25 -11 -34 -35 -20
23 31 41 53 43 29 28 71 72 33 46 55 58 11 -33 -58 -37 -20 -36 -24 -27 35 62 78 91 20 12 129 176 76 47 -24 -63 -38 -24 13 6 -30 -32 34 -30 -37 -12 -22
46 50 40 23 9 17 58 74 17 -6 -5 14 46 31 10 -35 -29 -40 -56 -35 7 -28 106 99 5 22 78 51 -8 -26 -2 25 55 22 -23 -41 -27 -9 -22 -19 25 -38 -19 -18
40 9 15 16 38 52 -26 -43 -31 -4 4 24 19 10 9 -26 -50 -64 -76 -73 -10 22 28 -6 109 223 162 48 -9 -4 25 28 51 -76 -54 -43 27 52 57 17 -34 36 11 15
1 3 13 35 26 -17 -15 6 -1 -1 9 35 53 72 51 19 19 -34 -69 -8 -13 102 92 135 129 110 51 48 32 57 43 34 -13 -31 -6 16 52 38 35 50 30 -28 62 30
20 33 44 7 -11 -4 9 2 -6 5 9 44 55 52 72 85 101 -33 -41 -15 1 76 106 63 62 42 -48 -38 -56 53 -5 -21 -18 -4 -14 49 68 40 53 85 59 32 -31 64
12 7 10 4 -4 12 3 -5 -1 12 9 6 27 41 51 32 33 14 3 49 77 77 44 31 18 -62 -82 -72 -67 -41 -32 -23 5 19 24 48 38 56 29 29 36 21 -1 -61
2 9 20 15 1 -9 -19 7 12 8 30 57 33 40 31 31 83 47 45 67 72 28 3 25 -29 -92 -97 -71 -60 -31 -24 -7 17 26 38 48 31 73 49 28 -5 16 22 21
16 17 19 7 -0 -14 -10 3 22 18 13 13 25 18 -6 23 41 87 67 26 -5 44 57 -53 -118 -101 -72 -84 -73 -50 -29 -11 29 29 44 63 46 20 29 31 16 8 42 71
20 19 22 11 -5 -14 -12 -12 -12 -18 -18 -18 -43 -25 -37 -6 11 24 -0 -0 80 27 -37 -45 16 -3 -41 -48 -51 -31 1 20 20 23 34 55 64 33 9 7 15 15 64 66
7 18 11 1 -3 -2 -12 -23 -32 -11 -8 -16 -8 -17 -3 13 -0 23 59 75 43 -10 11 10 21 -7 -54 -48 -43 -45 -28 2 17 20 12 35 28 2 -1 2 18 21 50 27

GFSNW_con_3kmhel_198.txt.gz
Helicity
64 67 57 57 60 64 97 161 230 90 90 234 263 231 216 174 189 197 191 214 244 280 247 298 315 215 139 143 127 109 37 150 236 156 163 132 84 127 177 168 177 205 254 225
52 35 37 40 47 52 130 219 189 96 133 275 258 194 197 136 208 223 257 242 154 95 167 244 195 186 64 159 77 184 251 304 221 138 46 -36 43 162 149 171 163 151 176 145
47 29 35 37 40 63 128 151 209 166 156 185 258 200 187 195 110 127 193 260 237 249 225 197 172 107 95 64 44 165 135 162 171 199 192 148 112 79 36 81 128 92 138 120
40 31 42 50 58 74 113 157 161 141 192 193 188 208 252 205 156 88 70 136 100 84 143 128 114 93 101 99 53 77 126 158 103 66 61 71 81 89 74 82 91 129 93 70
34 40 51 50 41 38 87 127 164 109 190 128 101 163 133 134 148 151 122 158 173 150 139 142 101 147 167 187 204 194 68 150 133 79 29 21 34 48 72 73 98 111 100 97
54 49 36 26 7 22 117 81 74 123 188 98 95 83 63 100 155 137 118 130 127 124 127 135 167 177 134 110 113 118 129 109 103 114 97 106 113 84 55 37 13 39 81 82
65 59 38 6 -2 37 33 68 57 121 140 105 108 146 174 157 108 113 98 80 94 82 78 100 78 79 64 56 60 87 119 124 128 113 89 124 91 56 55 65 53 45 51 90
63 57 38 28 18 63 66 36 77 88 135 112 104 99 90 90 72 46 41 37 49 106 130 92 63 89 72 36 23 41 76 83 102 114 94 96 72 61 53 56 56 123 87 109
54 37 37 38 32 64 54 62 64 69 124 128 126 90 57 69 59 37 28 75 108 57 54 72 64 78 54 63 50 29 27 56 88 93 144 112 80 60 58 49 63 49 33 32
47 47 41 38 29 23 35 33 23 41 69 61 54 61 122 98 87 82 47 53 57 40 38 63 59 57 30 52 41 46 54 73 78 108 111 106 81 46 32 68 59 81 92 114
49 43 30 13 2 -6 31 35 30 52 54 50 44 46 43 57 80 72 87 77 77 68 50 47 37 50 37 31 42 57 67 69 70 85 87 74 42 18 63 74 56 49 57 58
42 33 20 6 -1 4 19 19 46 46 44 46 31 25 34 55 42 48 48 68 49 62 58 64 70 80 70 62 46 46 66 61 81 78 101 92 58 55 39 42 63 76 91 62
30 21 17 11 6 8 -2 14 30 47 50 35 32 28 29 14 28 9 42 6 23 61 84 86 89 83 79 71 69 93 65 67 73 63 41 72 70 53 55 54 35 28 52 76
28 27 25 23 16 13 8 20 42 61 66 60 33 56 46 20 6 30 54 33 19 26 62 76 85 80 81 75 65 68 59 3 -8 -59 -38 -47 -44 -42 -23 -13 -6 -38 -33 -26
39 40 38 31 22 17 1 10 34 57 57 86 46 24 13 20 37 41 24 34 32 44 56 81 85 58 39 -19 -13 94 83 85 52 54 63 70 68 30 6 -81 -17 -90 -2 -7
48 45 42 32 23 17 7 23 41 66 89 62 64 31 15 17 35 40 39 50 44 60 87 70 88 29 -35 -17 100 216 94 64 53 13 -70 -138 -151 -126 46 84 58 47 -29 -61
46 37 29 24 17 1 24 43 2 33 18 73 64 38 28 32 18 26 29 28 5 -11 18 44 54 65 1 44 194 145 18 14 7 -79 -61 -73 -43 5 -34 -5 24 14 -36 -68
36 24 18 24 36 35 28 31 42 36 31 26 81 83 13 -7 7 4 -15 -12 -14 10 39 72 81 -10 -8 106 149 88 20 -39 -47 -69 -17 62 -23 -36 -48 -53 -43 -26 -1 47
28 33 25 17 -0 23 43 55 48 7 -11 19 62 49 36 4 30 8 -2 -14 12 -9 94 103 -18 32 83 114 27 -35 -36 21 66 29 53 -83 -6 -17 -8 -23 -22 -21 -65 -59
13 -7 21 29 35 52 27 17 -1 -26 -9 26 29 16 21 -9 -9 -14 -17 -4 7 45 86 22 96 172 156 76 29 42 76 62 59 53 -53 -51 -26 60 34 29 22 76 53 -29
-3 3 21 38 21 13 23 8 1 -23 -16 7 53 148 102 74 51 25 -36 -26 -21 89 59 70 36 34 9 69 93 94 94 71 38 -34 -17 -16 75 64 60 50 56 53 59 29
-4 18 14 23 21 18 7 15 -10 -18 -7 -1 -10 -16 17 47 35 -1 -11 -3 3 52 62 36 52 16 40 62 59 62 65 56 -14 -3 -11 2 28 10 30 71 79 40 47 28
-2 9 39 6 2 17 21 -1 -15 12 -10 -24 6 12 16 -1 -5 9 12 20 52 54 25 18 29 18 39 29 48 36 37 56 -50 14 4 30 31 35 13 50 56 33 20 -3
13 33 6 16 -1 19 -3 -11 8 -8 -5 7 15 23 -9 24 58 30 64 75 47 33 24 69 3 -23 15 38 48 29 18 26 -31 6 28 43 52 70 32 13 26 24 17 29
18 24 16 6 20 11 4 -1 3 -3 -3 -1 3 6 8 5 21 43 50 26 -4 68 102 35 -37 -1 37 31 7 -17 -29 -49 -16 -17 5 35 38 37 46 19 7 11 -0 33
29 12 12 30 22 3 -9 -5 2 -11 -15 -7 -25 -12 -17 -2 10 21 26 24 43 81 4 14 6 32 28 16 -3 -23 -43 -66 -58 -42 -22 -5 -1 27 15 7 -3 18 16 23
49 7 -7 6 -2 -14 -15 -14 -17 -11 -3 -9 -6 -15 -6 20 19 15 58 55 66 102 64 31 37 28 38 26 8 -25 -46 -73 -93 -70 -67 -33 -5 -8 22 14 13 3 12 23

GFSNW_con_3kmhel_201.txt.gz
Helicity
307 317 237 190 164 116 113 223 206 113 145 216 210 202 165 144 158 218 230 281 291 289 252 219 278 299 322 82 148 258 175 273 366 326 179 166 233 176 213 210 182 231 280 240
102 98 95 47 -1 15 150 261 240 144 190 221 234 248 179 151 147 180 256 347 418 391 288 281 277 285 198 101 121 168 164 221 365 362 249 112 203 198 169 160 155 269 210 191
-42 -35 -7 27 40 115 169 189 232 232 209 223 223 210 196 200 189 207 235 219 194 306 369 349 344 283 220 169 93 69 115 153 200 322 235 235 206 72 74 112 91 120 161 156
-12 10 27 40 66 94 108 189 177 155 147 187 200 249 257 229 228 155 123 201 206 333 371 330 307 283 257 185 89 101 184 273 165 132 100 133 178 111 104 76 111 106 81 77
-1 9 26 44 90 131 129 156 175 182 181 165 151 193 193 216 253 310 317 291 283 238 252 291 232 216 207 161 170 144 156 177 182 122 147 159 119 71 77 92 112 170 184 187
4 20 63 96 139 139 155 146 147 182 180 118 131 117 150 205 265 236 199 229 201 214 237 177 143 121 107 95 100 109 97 74 27 75 31 81 111 113 94 77 78 71 104 72
28 55 81 118 144 136 126 178 159 183 194 122 91 167 146 162 180 190 190 140 164 173 125 117 123 102 77 82 90 99 112 114 119 108 78 119 94 41 68 100 115 100 80 64
37 53 76 88 100 122 108 97 117 157 195 167 220 230 211 212 183 116 77 53 61 110 95 96 88 98 104 73 64 65 95 141 175 176 141 142 107 80 79 108 116 22 40 54
26 30 39 53 105 144 64 88 53 121 238 287 241 178 87 119 116 115 76 96 127 101 84 78 115 138 115 98 127 63 34 42 94 121 143 157 74 71 58 36 73 38 71 90
39 40 44 55 76 91 72 72 60 82 158 145 111 151 156 112 109 131 137 150 102 93 79 93 103 111 88 102 78 58 54 46 49 57 70 34 47 33 60 51 55 114 63 64
32 27 31 46 52 60 39 46 46 57 92 87 104 101 81 91 99 111 115 107 106 128 125 101 71 83 63 73 79 79 57 58 46 50 69 95 179 139 109 78 42 30 36 29
22 19 13 20 18 30 43 22 28 28 47 28 32 26 26 50 60 120 103 125 115 95 122 119 98 99 74 46 64 43 74 72 75 92 112 85 48 57 62 75 61 64 83 63
31 28 22 19 27 37 40 20 15 28 31 32 46 48 82 50 43 65 135 67 69 90 68 65 64 88 110 100 88 82 76 77 98 89 65 73 60 52 51 61 50 57 67 80
36 29 32 32 29 28 24 27 16 39 42 60 42 27 29 41 71 64 61 57 42 58 90 107 112 124 92 108 116 102 124 8 69 -13 14 -30 30 17 -8 -17 -31 -45 -11 47
41 34 33 30 26 18 0 6 14 28 48 50 49 12 52 42 43 59 67 75 74 86 106 109 108 100 79 87 -17 109 91 61 16 63 48 -11 -13 -88 73 -30 -30 73 39 18
39 36 33 29 23 18 26 44 40 32 51 59 32 29 32 37 45 47 53 87 94 92 97 48 50 89 -58 -29 107 259 54 3 -23 -15 -68 -96 -76 -84 37 94 108 12 14 32
39 33 26 20 19 26 47 32 14 9 35 51 12 -4 13 35 26 44 53 26 24 46 37 38 44 60 -5 36 232 363 106 82 13 -11 38 -45 35 -33 15 -38 -100 -10 108 -31
29 16 14 19 32 36 26 16 17 2 21 28 19 23 35 16 41 33 -18 -2 -24 -3 8 41 54 -11 4 82 135 87 55 -59 -22 53 43 33 -13 -87 -55 15 47 21 -14 4
19 24 17 22 11 13 14 36 27 23 16 12 47 64 8 -6 0 9 1 4 22 12 81 89 -21 15 39 114 73 17 -20 79 68 47 19 26 -53 -49 14 20 45 67 51 29
13 6 22 29 18 52 46 30 25 8 -11 3 9 33 65 -5 -10 21 10 -15 -10 38 58 14 57 136 126 31 16 5 52 79 68 3 -39 -13 12 6 30 17 31 54 84 77
11 12 13 14 29 17 19 16 2 3 -4 -13 -12 41 48 27 35 9 -35 -26 -33 57 40 41 13 16 14 49 61 50 69 79 88 77 69 -7 14 17 27 43 70 82 52 50
2 6 -9 21 21 27 16 5 17 -12 -6 -10 -30 -13 18 22 13 6 13 13 5 36 40 14 -13 -19 53 66 73 73 76 83 88 67 32 -9 8 20 51 25 65 62 62 63
10 12 27 27 12 4 7 35 14 -10 -14 -20 -30 -16 11 -4 -28 -12 -19 6 42 48 27 20 60 -12 63 64 78 66 70 76 63 39 49 -30 -12 12 27 18 6 7 45 31
9 25 25 27 5 15 24 22 -7 -9 -14 2 4 -13 -15 25 15 12 -16 50 56 13 41 100 -22 -46 15 42 65 67 41 31 -86 -46 -52 -47 -27 -11 27 32 22 1 -12 7
21 24 26 9 9 11 -9 -20 -35 -20 -19 -10 4 12 25 9 11 20 2 -12 -27 59 108 -8 -66 35 58 53 60 58 24 -35 -64 -106 -54 -67 -59 -28 0 22 11 1 -9 10
17 26 13 10 18 18 -12 -25 -22 -7 -4 -9 -15 -6 -1 -5 -2 15 -11 18 18 78 8 -28 63 64 56 50 34 27 37 18 -31 -56 -63 -64 -91 -68 -18 2 13 21 21 18
44 19 3 -6 -2 1 5 -12 -14 1 5 14 15 14 -2 26 33 38 53 101 36 -19 28 43 41 66 62 54 34 19 22 19 13 -1 3 27 35 5 13 -6 14 38 31 35

GFSNW_con_3kmhel_207.txt.gz
Helicity
254 492 686 849 794 883 823 680 497 558 526 875 763 673 636 708 783 784 653 566 566 409 280 251 213 184 225 260 216 208 245 230 224 188 278 247 223 228 267 382 431 432 457 437
484 716 831 755 847 833 940 733 701 490 805 815 810 721 755 773 807 697 628 559 341 199 174 160 114 181 306 307 247 238 234 284 271 206 209 264 253 281 331 392 447 476 505 553
590 746 743 793 906 885 894 736 702 762 710 723 944 1069 913 843 532 515 304 257 173 181 165 200 134 156 234 297 266 314 232 240 273 264 262 230 270 297 316 316 390 349 313 218
669 739 740 887 1018 996 870 658 528 807 708 901 927 804 659 632 568 201 113 178 163 211 220 223 171 212 235 253 261 233 236 242 266 247 250 230 232 243 249 272 225 264 200 125
761 765 961 1038 1024 952 856 592 664 911 665 626 629 495 387 285 162 199 236 223 231 226 203 198 168 216 228 215 268 282 265 299 258 257 219 187 219 221 205 172 122 91 70 115
740 731 710 634 640 693 724 571 499 557 452 494 412 285 208 152 191 273 184 231 290 263 204 186 168 156 146 178 232 213 237 235 257 297 198 197 338 221 142 91 74 100 121 79
484 429 427 418 374 403 503 454 443 513 430 251 171 126 158 213 266 232 294 272 255 202 165 146 145 147 131 132 125 158 195 217 248 294 265 381 216 131 133 132 111 133 158 107
288 285 284 286 180 53 129 79 156 167 315 131 198 179 267 342 308 304 263 230 156 148 205 240 245 240 228 171 145 155 180 266 290 315 274 216 164 110 150 160 147 118 109 141
84 55 12 7 48 63 81 77 91 131 257 234 222 254 257 333 356 334 301 235 182 196 198 236 261 276 220 208 214 170 164 161 250 272 255 261 181 147 70 31 93 57 130 146
97 129 144 118 112 88 109 145 188 206 223 331 288 300 261 209 256 299 261 234 210 183 218 255 250 222 197 211 196 199 192 185 190 173 197 195 151 83 100 121 130 157 92 35
120 129 109 103 97 106 139 203 276 175 228 324 229 174 180 194 194 265 204 269 229 231 257 242 219 213 177 198 163 126 97 101 112 142 223 214 86 118 147 137 54 68 73 103
114 125 128 123 127 138 178 234 269 212 162 195 170 145 129 103 93 165 190 174 169 161 224 206 185 216 191 152 142 95 129 104 126 168 192 163 127 84 44 94 94 -8 59 -17
96 103 109 124 130 144 100 170 187 147 150 169 130 134 114 83 67 59 150 164 141 171 168 161 172 191 148 141 107 109 104 122 160 155 94 86 -45 -29 -23 -12 -26 -72 -85 -94
72 74 75 81 89 98 89 130 136 98 116 125 87 68 74 52 51 70 90 114 171 187 194 193 182 160 100 116 86 114 111 105 125 70 17 -50 18 47 10 92 4 68 80 60
52 55 56 52 51 54 72 86 104 55 34 79 76 45 67 70 61 77 101 127 132 144 156 135 103 86 91 78 95 89 122 82 42 61 -31 -54 -12 14 10 74 83 81 31 -39
47 46 48 45 40 46 41 57 83 89 70 86 90 36 23 35 27 85 98 97 115 90 120 81 90 94 96 86 48 -4 -21 -46 -56 -27 83 81 64 40 58 -67 -60 -51 -33 12
51 51 55 60 58 53 50 36 37 50 42 67 75 42 -1 -3 12 28 48 73 79 93 99 77 84 74 74 36 57 -1 -21 -37 -33 12 50 42 69 95 -18 -38 -29 -11 33 63
39 43 51 55 49 51 75 64 42 24 36 39 38 15 23 14 16 13 19 46 65 56 58 74 55 -2 -32 13 19 -32 -37 -26 -29 24 53 108 93 102 -44 -40 -29 10 -15 44
32 31 28 37 53 50 31 11 28 8 11 51 38 31 10 6 17 3 -5 -23 11 -29 2 15 -56 -30 28 20 -38 -9 -31 -15 22 41 60 71 47 -30 -42 -38 -15 -20 -6 19
22 33 42 50 47 12 17 32 27 36 30 32 46 17 8 26 0 5 -9 -17 -24 -19 -24 -18 -21 29 77 50 5 3 12 32 41 -26 -51 -37 -5 -2 -25 -33 -39 -37 -25 8
25 30 33 10 4 26 37 47 45 58 64 28 13 23 17 2 2 -3 -2 0 -1 1 -3 0 1 27 15 31 48 38 27 25 41 41 70 99 118 32 -35 -34 -35 -23 -27 -30
15 21 28 24 33 44 55 48 51 48 62 30 25 10 -2 11 -11 -4 -19 0 7 6 31 20 26 13 23 32 29 31 33 27 34 49 45 37 94 80 57 54 -9 -40 -17 -19
34 39 41 31 24 55 56 70 84 72 45 34 38 24 18 3 -6 5 8 5 -4 18 3 19 44 -28 -8 20 25 38 50 52 44 20 27 -2 0 37 59 -35 -1 48 10 -31
40 42 29 31 27 22 21 34 44 20 26 21 24 25 19 11 6 10 17 9 20 29 38 52 28 -62 -84 23 53 64 65 66 40 30 19 -7 -1 -15 9 52 42 24 -23 -31
50 43 16 14 7 -1 -5 19 38 18 26 21 26 25 15 9 5 16 19 40 42 37 27 47 45 -7 15 52 82 116 104 80 70 63 49 21 3 -3 -17 5 8 4 9 -3
57 24 14 14 10 -29 53 51 24 10 10 14 22 12 22 16 22 36 30 68 47 29 70 58 60 41 35 55 93 113 111 101 69 65 65 41 22 4 -20 0 -14 -12 -22 -16
11 -17 -2 12 3 -32 9 14 9 8 27 20 24 21 -8 59 50 60 79 95 82 69 44 72 90 65 57 67 110 124 125 111 89 93 74 64 57 58 36 2 -12 -9 -38 -11

GFSNW_con_3kmhel_210.txt.gz
Helicity
187 210 286 641 596 647 718 615 519 254 482 530 554 514 509 524 407 520 518 468 483 511 567 598 596 545 487 289 191 229 202 143 183 65 131 197 156 138 167 254 268 330 381 356
91 212 302 562 649 580 640 738 567 541 492 587 640 625 607 596 546 549 539 496 549 610 671 708 761 641 346 285 196 131 56 159 147 82 155 177 187 216 281 287 337 312 405 492
47 46 458 584 574 475 723 680 572 629 511 568 554 628 552 679 674 670 679 706 754 814 846 828 623 533 327 221 159 193 166 170 161 145 167 196 213 227 257 273 359 345 363 278
-87 147 498 661 594 666 837 703 471 542 474 476 558 532 484 649 707 670 622 695 579 646 761 669 562 418 285 257 222 245 209 155 151 184 228 225 193 195 206 273 274 303 245 254
-19 229 475 610 691 763 779 507 473 506 305 447 547 563 594 678 923 846 765 685 513 606 499 339 212 205 205 218 247 222 247 166 180 149 167 176 183 195 229 181 164 190 135 170
248 738 594 655 771 803 545 542 514 484 354 477 564 611 676 646 846 619 425 476 560 419 203 137 143 202 235 201 204 223 245 236 219 197 223 222 279 219 152 137 127 141 213 141
663 622 731 781 711 583 395 573 624 544 428 369 479 531 674 611 585 543 452 372 390 202 202 236 243 242 213 185 190 214 246 246 276 260 267 379 215 201 116 123 125 122 127 129
776 871 820 777 773 645 584 512 372 314 372 378 405 431 455 310 294 413 335 256 130 160 219 216 213 230 208 243 232 172 179 261 272 281 307 280 234 139 117 116 156 114 105 99
655 700 727 623 545 419 359 376 324 326 407 385 321 414 351 434 403 378 258 268 248 241 242 211 181 178 212 230 223 252 210 200 239 314 313 311 188 85 119 153 152 130 201 152
328 265 239 219 229 208 213 328 257 339 391 337 242 319 237 207 261 296 283 274 274 229 230 236 238 239 224 207 227 211 241 259 227 237 254 224 137 106 126 199 167 169 104 52
261 234 202 214 194 108 135 163 151 151 271 284 190 186 194 267 246 304 232 287 270 231 249 229 208 206 183 221 205 191 228 253 212 272 314 220 141 119 163 124 10 60 85 115
135 134 129 127 137 121 125 195 209 197 185 261 274 236 197 119 97 189 259 197 199 180 241 233 203 242 214 219 240 201 226 159 164 179 169 152 134 122 89 95 70 52 86 77
114 128 136 139 132 121 128 213 197 270 252 334 274 276 240 174 149 109 195 202 141 187 155 179 212 253 206 241 202 192 146 139 168 160 128 102 86 65 59 54 51 82 96 88
98 111 121 131 154 196 224 243 227 168 176 199 220 163 152 110 93 123 128 136 181 179 211 234 236 227 152 201 180 178 125 121 116 151 87 14 13 52 85 39 36 69 72 76
79 79 73 94 115 132 151 217 228 136 77 144 166 90 115 84 87 124 129 153 180 198 225 234 205 199 188 175 170 149 142 116 143 48 7 24 16 57 33 54 56 19 25 -9
80 81 86 100 116 120 101 170 173 203 144 171 165 69 87 87 62 88 98 117 134 156 187 161 113 112 128 155 162 59 37 55 66 58 19 32 37 45 36 48 -41 -40 -19 -23
56 60 76 94 95 66 71 68 91 138 89 90 141 119 57 52 52 51 57 72 79 95 101 87 96 72 82 82 79 64 36 -20 -23 -11 27 39 53 22 30 61 18 -7 14 39
39 45 56 70 71 88 163 183 121 68 70 94 121 129 97 54 79 87 39 57 65 57 73 83 76 94 104 94 24 6 -30 -40 -6 19 55 53 67 61 54 52 -19 -15 2 4
37 42 43 45 78 75 56 51 69 63 79 111 123 135 106 58 66 57 63 59 73 67 83 99 105 79 31 45 -19 -40 -35 11 29 41 21 24 46 34 51 30 -3 6 7 11
39 39 43 50 39 27 45 69 78 94 108 117 143 89 94 48 56 68 76 71 66 60 -0 -26 -0 83 90 44 -2 -12 32 38 38 33 3 21 29 27 19 48 93 95 72 53
19 25 24 16 32 48 61 76 88 95 129 127 108 74 68 31 48 43 32 28 29 24 -8 23 -0 26 12 12 33 71 71 58 53 44 49 56 45 -7 -38 -51 -19 32 80 78
4 9 13 12 31 50 69 85 85 92 124 95 75 40 29 35 25 34 19 16 32 9 37 17 7 16 15 34 29 47 72 83 74 74 58 55 55 45 24 -12 -27 -17 40 76
19 24 33 39 45 88 77 79 96 108 107 62 48 49 41 33 29 25 29 26 13 25 30 33 24 42 15 14 37 55 80 113 113 91 90 76 58 54 54 18 14 10 3 22
29 33 42 44 39 30 38 60 91 66 59 62 59 58 46 28 38 33 46 35 44 46 50 40 40 36 27 42 50 102 111 143 134 102 72 73 69 60 53 48 33 7 -14 -17
32 36 12 22 26 34 26 43 72 36 42 46 52 52 35 35 41 32 57 73 61 59 58 43 11 45 45 62 97 139 142 135 130 120 110 88 81 74 62 70 52 38 17 -8
15 13 1 15 32 19 12 28 42 35 38 46 42 33 34 33 43 52 43 71 38 42 84 61 71 54 37 54 103 122 135 141 143 145 131 121 122 123 109 104 84 55 29 -11
-2 -16 -31 -13 -23 -14 -22 21 7 22 41 32 39 24 13 63 56 65 69 65 57 67 49 51 41 41 52 64 96 104 121 151 170 172 145 142 161 197 181 135 109 88 61 41

GFSNW_con_3kmhel_216.txt.gz
Helicity
84 96 142 158 155 203 383 493 671 439 688 630 385 329 417 351 213 313 361 293 233 271 261 244 177 164 295 249 237 269 222 184 242 139 386 387 212 233 266 434 477 461 425 249
82 94 143 159 162 295 482 540 764 559 545 710 555 401 254 332 321 256 305 259 295 397 256 311 281 349 350 292 247 218 259 220 324 260 280 342 413 467 458 487 485 452 433 395
78 92 141 143 132 119 548 696 727 867 713 644 541 514 394 471 483 202 187 338 315 244 237 241 196 323 420 438 346 394 301 290 230 220 271 298 337 450 378 381 481 273 256 103
77 83 114 70 -9 190 574 700 497 942 765 579 496 543 420 481 551 466 303 403 316 359 359 402 336 348 416 397 404 400 357 304 394 507 581 561 482 433 391 306 255 270 126 118
92 73 104 -23 42 188 482 455 597 793 467 599 672 513 389 346 624 473 387 262 341 232 358 324 401 414 395 369 413 438 517 474 544 592 628 505 322 231 248 218 147 108 97 133
74 66 82 47 -54 264 392 467 601 602 446 581 624 507 413 390 438 600 340 315 473 451 461 384 384 402 417 366 403 549 570 563 506 413 369 329 312 188 144 104 136 151 122 121
48 68 126 -61 37 230 327 321 626 493 446 501 354 397 463 477 455 499 442 401 490 435 470 511 490 471 492 470 480 373 373 381 445 475 387 406 360 223 157 128 142 97 77 96
67 83 87 179 140 298 259 365 308 488 549 250 368 402 584 550 562 580 532 478 434 359 413 475 420 453 415 413 424 398 324 397 467 457 385 450 181 112 91 37 56 90 122 172
106 113 95 130 251 236 440 420 355 340 339 291 420 531 522 694 749 632 529 351 227 287 446 369 343 318 382 339 391 382 370 321 379 450 444 367 297 220 157 148 84 255 160 124
194 200 216 231 294 265 492 413 414 322 344 268 417 656 723 683 849 737 654 494 383 345 442 512 424 406 336 379 376 437 457 405 342 324 335 260 274 214 122 167 270 162 127 96
292 352 341 280 352 365 408 385 417 278 260 337 310 398 480 476 494 536 438 594 470 441 465 421 423 370 377 420 307 335 335 303 330 273 286 248 183 198 158 249 161 115 103 79
332 351 289 293 271 306 368 405 372 368 374 339 284 335 325 300 281 473 393 328 427 363 403 418 400 421 347 306 334 184 273 241 273 206 223 255 86 219 158 104 98 97 79 55
230 208 159 88 64 151 243 325 249 464 485 480 363 303 272 244 121 179 432 303 308 270 266 270 256 275 194 265 221 152 186 203 240 217 186 188 152 93 90 101 84 69 57 61
92 83 73 33 109 175 168 311 312 290 391 527 461 326 362 176 49 74 57 115 126 150 158 201 184 183 121 156 186 143 221 181 165 183 182 170 104 58 107 76 62 53 52 55
140 157 185 202 154 131 219 221 184 209 189 492 495 301 357 160 99 96 95 133 138 165 154 138 154 146 140 170 186 186 194 144 180 191 124 144 126 104 70 46 51 44 38 16
143 136 110 123 117 105 201 243 183 241 424 426 410 222 196 135 166 184 189 161 163 129 119 125 124 123 135 146 175 142 67 85 99 127 113 85 101 53 47 38 36 22 3 11
168 167 131 82 84 121 147 140 99 163 208 375 284 228 127 151 131 161 145 141 121 96 102 100 98 97 108 136 98 79 63 33 27 34 72 62 34 42 38 25 20 18 20 10
133 123 128 157 118 171 288 304 162 130 99 133 153 190 122 85 95 127 98 96 76 84 80 64 64 84 53 68 48 53 20 26 24 42 31 25 48 37 19 19 11 26 23 32
112 105 114 146 288 222 203 279 203 115 74 85 104 124 143 73 103 101 89 67 82 57 51 57 59 59 61 44 25 36 22 30 34 13 19 28 15 13 26 11 32 36 41 44
58 65 97 134 151 161 166 107 97 101 95 89 122 105 122 71 85 103 78 55 64 60 50 80 47 44 38 6 20 -1 11 -0 16 51 15 10 12 23 31 40 47 59 55 45
31 66 104 101 101 103 104 116 122 111 115 110 134 93 119 98 90 95 56 52 44 56 68 40 17 -14 35 9 2 15 22 21 27 15 7 23 47 61 46 38 62 63 56 62
44 33 41 48 61 67 80 112 95 100 114 141 114 145 116 101 53 62 45 55 43 65 50 34 44 45 15 10 17 9 12 11 9 17 34 51 63 73 57 45 61 61 70 80
25 28 34 45 56 88 111 114 108 93 91 108 131 149 118 89 65 68 48 50 59 50 31 34 32 39 17 27 32 27 1 -11 -3 36 56 66 75 85 81 59 67 78 87 96
16 29 44 51 54 64 72 85 80 88 83 101 100 118 91 81 76 55 49 61 47 40 28 19 19 16 37 54 46 34 27 16 19 28 54 75 104 108 128 118 120 133 120 119
32 33 55 49 39 48 51 54 63 83 67 67 84 87 67 75 64 52 62 40 39 29 44 43 61 58 57 46 42 56 62 73 83 79 110 126 164 176 170 167 164 154 154 146
18 19 19 11 16 26 39 39 51 42 53 63 78 76 68 68 55 43 52 54 31 43 52 38 45 68 85 97 108 113 119 113 112 111 124 130 147 167 173 181 212 206 193 179
-1 -9 -0 -6 9 -4 2 15 25 24 37 63 62 76 78 61 43 46 51 38 45 51 52 85 105 111 145 166 154 137 122 118 120 118 107 105 104 117 141 164 178 196 196 201